Regional Weather Roundup
Issued by NWS

Home | Current Version | Previous Version | Text Only | Print | Product List | Glossary On
Versions: 1 2 3 4 5 6 7 8 9 10 11 12 13 14 15 16 17 18 19 20 21 22 23 24 25 26 27 28 29 30 31 32 33 34 35 36 37 38 39 40 41 42 43 44 45 46 47 48 49 50
000
ASUS44 KOUN 121710
RWROK

WEATHER ROUNDUP FOR OKLAHOMA
NATIONAL WEATHER SERVICE NORMAN OK
1100 AM CST TUE DEC 12 2017

NOTE: "FAIR" INDICATES FEW OR NO CLOUDS BELOW 12,000 FEET WITH NO
      SIGNIFICANT WEATHER AND/OR OBSTRUCTIONS TO VISIBILITY.

OKZ001>007-009>012-014-015-017-121800-
NORTHWEST OKLAHOMA AND THE PANHANDLE

CITY           SKY/WX    TMP DP  RH WIND       PRES   REMARKS
GAGE           SUNNY     44  22  41 W6        30.41F
GUYMON         SUNNY     50  14  23 W9        30.38F
$$

OKZ016-021>023-033>039-044-045-121800-
SOUTHWEST OKLAHOMA

CITY           SKY/WX    TMP DP  RH WIND       PRES   REMARKS
LAWTON/REGL    SUNNY     47  28  47 N15       30.47S
LAWTON/FT SILL SUNNY     47  30  51 N15       30.45R
FREDERICK      SUNNY     49  28  44 N15       30.44S
CLINTON        SUNNY     43  27  53 VRB5      30.45S
HOBART         SUNNY     48  29  47 N12       30.46F
ALTUS AFB      SUNNY     48  26  41 NE8       30.46S
$$

OKZ018>020-024>031-121800-
CENTRAL OKLAHOMA

CITY           SKY/WX    TMP DP  RH WIND       PRES   REMARKS
OKLAHOMA CITY  SUNNY     42  26  53 NW10      30.43S
OKC/WILEY POST SUNNY     44  28  53 N12       30.44S
OKC/TINKER AFB SUNNY     43  27  53 NW8       30.43R
STILLWATER     SUNNY     44  26  49 NW10      30.43F
GUTHRIE        SUNNY     43  28  55 VRB6      30.44F
$$

OKZ008-013-054>072-121800-
NORTHEAST OKLAHOMA

CITY           SKY/WX    TMP DP  RH WIND       PRES   REMARKS
TULSA          SUNNY     42  16  34 NW9       30.42S
TULSA/JONES    SUNNY     43  16  33 NW7       30.42F
PONCA CITY     SUNNY     41  26  55 VRB7      30.42F
BARTLESVILLE   SUNNY     41  16  36 VRB5      30.43S
MUSKOGEE       SUNNY     42  21  43 N9        30.42S
$$

OKZ032-040>043-046>053-073>077-121800-
SOUTH CENTRAL/SOUTHEAST OKLAHOMA

CITY           SKY/WX    TMP DP  RH WIND       PRES   REMARKS
ARDMORE/DWNTWN SUNNY     46  27  46 NE7       30.45S
MCALESTER      SUNNY     45  24  43 N10       30.42R
$$




USA.gov is the U.S. government's official web portal to all federal, state and local government web resources and services.